Regional Weather Roundup
Issued by NWS

Home | Current Version | Previous Version | Text Only | Print | Product List | Glossary Off
Versions: 1 2 3 4 5 6 7 8 9 10 11 12 13 14 15 16 17 18 19 20 21 22 23 24 25 26 27 28 29 30 31 32 33 34 35 36 37 38 39 40 41 42 43 44 45 46 47 48 49 50

000
ASUS44 KMEG 271900
RWRTN
TENNESSEE HOURLY STATE WEATHER ROUNDUP
NATIONAL WEATHER SERVICE MEMPHIS TN
100 PM CST TUE JAN 27 2015

TNZ002-004-019-021-049-052-054-088>092-272000-
WEST TENNESSEE

CITY           SKY/WX    TMP DP  RH WIND       PRES   REMARKS
MEMPHIS INTL   MOSUNNY   56  35  45 N7        30.12F
NWS MEMPHIS      N/A     53 N/A N/A MISG        N/A
JACKSON        MOSUNNY   51  32  48 N9        30.11F
DYERSBURG      MOSUNNY   48  27  43 N12       30.14F
UNION CITY     MOSUNNY   43  34  70 NW13      30.12F
PARIS          MOSUNNY   43  30  61 NW9       30.11S
LEXINGTON      MOSUNNY   48  30  49 N13       30.08S
SAVANNAH         N/A     50  32  50 NW10      30.09F
$$

TNZ008-025-027-028-033-062-065-066-272000-
NORTH MIDDLE TENNESSEE

CITY           SKY/WX    TMP DP  RH WIND       PRES   REMARKS
NASHVILLE      CLOUDY    39  31  72 N10       30.09R WCI  32
CLARKSVILLE    CLOUDY    39  31  72 N12       30.10F WCI  32
COOKEVILLE     CLOUDY    36  32  87 CALM      30.02S
CROSSVILLE     CLOUDY    33  28  81 NW8       29.99S WCI  26
$$

TNZ061-075-076-078-094-096-097-272000-
SOUTH MIDDLE TENNESSEE

CITY           SKY/WX    TMP DP  RH WIND       PRES   REMARKS
FAYETTEVILLE   MOSUNNY   46  30  53 N17       30.03S
TULLAHOMA      CLOUDY    37  30  75 N9        30.04S WCI  31
WINCHESTER     CLOUDY    39  30  70 VRB6      30.04S WCI  35
SHELBYVILLE    CLOUDY    41  34  75 N14       30.07R
$$

TNZ017-018-042-046-047-272000-
NORTHEAST TENNESSEE

CITY           SKY/WX    TMP DP  RH WIND       PRES   REMARKS
TRI CITIES     CLOUDY    34  22  61 W9        29.93S WCI  27
ELIZABETHTON   CLOUDY    30  21  69 NW7       29.91S WCI  23
$$

TNZ012-013-036-069-073-074-272000-
CENTRAL EAST TENNESSEE

CITY           SKY/WX    TMP DP  RH WIND       PRES   REMARKS
KNOXVILLE      FLURRIES  34  28  79 NW7       30.01S WCI  28
OAK RIDGE      CLOUDY    37  29  72 CALM      30.02S
GATLINBURG     CLOUDY    34  27  75 W3        29.99S
$$

TNZ083-085-099-272000-
SOUTHEAST TENNESSEE

CITY           SKY/WX    TMP DP  RH WIND       PRES   REMARKS
CHATTANOOGA    PTSUNNY   42  31  64 NW14      30.03R
$$

SKY/WX REPORTED AS FAIR MEANS FEW OR NO CLOUDS BELOW
12 THOUSAND FEET.



USA.gov is the U.S. government's official web portal to all federal, state and local government web resources and services.